Location: Gisborne
(38.6530°S, 178.0040°E)
Time: 01:38:54
(UTC+13:00)

Cosmos 2227 - Pass Details

Date: 24 January 2019
Orbit: 834 x 862 km, 71.0° (Epoch: 20 February)

Event Time Altitude Azimuth Distance (km) Brightness Sun altitude
Rises 21:32:45 0° 204° (SSW) 3,437 8.5 -11.4°
Reaches altitude 10° 21:35:13 10° 204° (SSW) 2,491 7.7 -11.8°
Maximum altitude 21:40:57 84° 290° (WNW) 856 4.2 -12.7°
Enters shadow 21:45:59 13° 18° (NNE) 2,224 5.9 -13.5°
